Home > Weather > Oranienburg > Past weeks

Flag for Germany Weather for the Past 2 Weeks in Oranienburg, Brandenburg, Germany

Now
57 °F

Passing clouds.


Feels Like: 55 °F
Forecast: 45 / 65 °F
Wind: 8 mph from Northeast

Location: Berlin-Tegel

Current Time: May 1, 2016 at 10:20:22 PM

Latest Report: May 1, 2016 at 9:50 PM


Visibility: N/A

Pressure: 30.27 "Hg

Humidity: 39%

Dew Point: 32 °F

Location of OranienburgLocation

Historic Weather in Oranienburg — Graph

°F

Oranienburg Temperature Yesterday

Maximum temperature yesterday: 66 °F (at 1:50 PM)
Minimum temperature yesterday: 43 °F (at 5:50 AM)
Average temperature yesterday: 56 °F

High & Low Weather Summary for the Past Weeks

 TemperatureHumidityPressure
High66 °F (Apr 30, 1:50 PM)93% (Apr 17, 4:20 AM)30.36 "Hg (Apr 17, 4:20 AM)
Low32 °F (Apr 29, 5:50 AM)26% (Apr 30, 5:20 PM)29.45 "Hg (Apr 26, 5:50 AM)
Average47 °F60%29.94 "Hg
* Reported Apr 16 9:20 PM — May 1 9:20 PM, Oranienburg, Weather by CustomWeather, © 2016

Note: Actual official high and low records may vary slightly from our data, if they occured in-between our weather recording intervals... More about our weather records

Advertising

Oranienburg Weather History for the Previous 24 Hours

Scroll right to see more
 ConditionsComfort  
Time TempWeatherWind HumidityBarometerVisibility
9:20 PM
Sun, May 1
59 °FPassing clouds.7 mph39%30.27 "HgN/A
8:50 PM61 °FPassing clouds.6 mph36%30.24 "HgN/A
8:20 PM61 °FPassing clouds.7 mph34%30.24 "HgN/A
7:50 PM63 °FPassing clouds.7 mph32%30.24 "HgN/A
7:20 PM64 °FPassing clouds.9 mph30%30.21 "HgN/A
6:50 PM64 °FPassing clouds.7 mph30%30.21 "HgN/A
6:20 PM64 °FPassing clouds.6 mph30%30.21 "HgN/A
5:50 PM64 °FPassing clouds.8 mph30%30.21 "HgN/A
5:20 PM64 °FPassing clouds.7 mph30%30.21 "HgN/A
4:50 PM64 °FPassing clouds.10 mph30%30.21 "HgN/A
4:20 PM64 °FPassing clouds.9 mph28%30.21 "HgN/A
3:50 PM64 °FPassing clouds.9 mph28%30.21 "HgN/A
3:20 PM64 °FPassing clouds.9 mph30%30.21 "HgN/A
2:50 PM64 °FPassing clouds.9 mph30%30.21 "HgN/A
2:20 PM64 °FPassing clouds.10 mph32%30.21 "HgN/A
1:50 PM63 °FPassing clouds.10 mph32%30.21 "HgN/A
1:20 PM63 °FPassing clouds.10 mph34%30.21 "HgN/A
12:50 PM63 °FPassing clouds.12 mph30%30.21 "HgN/A
12:20 PM63 °FPassing clouds.12 mph32%30.21 "HgN/A
11:50 AM61 °FPassing clouds.12 mph36%30.21 "HgN/A
11:20 AM61 °FPassing clouds.12 mph36%30.21 "HgN/A
10:50 AM61 °FPassing clouds.10 mph36%30.21 "HgN/A
10:20 AM61 °FPassing clouds.8 mph42%30.21 "HgN/A
9:50 AM59 °FPassing clouds.7 mph45%30.21 "HgN/A
8:50 AM54 °FSunny.5 mph58%30.21 "Hg10 mi
8:20 AM52 °FPassing clouds.6 mph58%30.18 "HgN/A
7:50 AM50 °FPassing clouds.6 mph62%30.18 "HgN/A
7:20 AM48 °FPassing clouds.5 mph62%30.18 "HgN/A
6:20 AM45 °FPassing clouds.5 mph71%30.18 "HgN/A
5:50 AM43 °FPassing clouds.3 mph81%30.15 "HgN/A
5:20 AM43 °FClear.5 mph81%30.15 "Hg10 mi
4:20 AM45 °FClear.6 mph76%30.15 "Hg10 mi
3:50 AM45 °FPassing clouds.7 mph71%30.12 "HgN/A
3:20 AM46 °FClear.9 mph66%30.15 "Hg10 mi
2:50 AM46 °FClear.8 mph66%30.12 "Hg10 mi
2:20 AM48 °FClear.7 mph62%30.12 "Hg10 mi
1:50 AM50 °FClear.7 mph58%30.12 "Hg10 mi
1:20 AM50 °FClear.3 mph58%30.09 "Hg10 mi
12:50 AM52 °FPassing clouds.5 mph54%30.09 "HgN/A
12:20 AM52 °FClear.6 mph50%30.09 "Hg10 mi
11:50 PM
Sat, Apr 30
55 °FPassing clouds.6 mph41%30.09 "HgN/A
11:20 PM55 °FClear.7 mph44%30.09 "Hg10 mi
10:50 PM55 °FPassing clouds.7 mph44%30.09 "HgN/A
10:20 PM57 °FPassing clouds.6 mph44%30.09 "HgN/A
Weather by CustomWeather, © 2016

See weather overviewHow to use our weather pages